Location: Unspecified
(44.0704°N, 88.6889°W)
Time: 20:59:13
(UTC+02:00)

A-11 Canister half - Visible Passes

Search period start: 07 August 2020 00:00
Search period end: 17 August 2020 00:00
Orbit: 1527 x 1682 km, 47.3° (Epoch: 07 August)

Date Brightness Start Highest point End Pass type
(mag) Time Alt. Az. Time Alt. Az. Time Alt. Az.
07 Aug 10.5 04:31:02 10° W 04:38:21 24° SW 04:45:31 10° S visible
08 Aug 10.5 04:09:13 10° WNW 04:16:48 26° SW 04:24:12 10° S visible
09 Aug 10.5 03:47:25 10° WNW 03:55:13 27° SW 04:02:52 10° S visible
10 Aug 10.5 03:25:37 10° WNW 03:33:39 29° SW 03:41:29 10° S visible
